Fort Payne, AL

4:15 AM CST on December 14, 2017 (GMT -0600)
Fort Payne

Weather History for K4A9 - August, 2014

Change the Weather History Date:

Sunday, August 24, 2014

  Actual Average (KRMG) Record (KRMG)
Temperature  
Mean Temperature 78 °F -  
Max Temperature 87 °F 88 °F 99 °F (2007)
Min Temperature 69 °F 60 °F 54 °F (1997)
Cooling Degree Days 13    
Growing Degree Days 28 (Base 50)    
Moisture  
Dew Point 69 °F    
Average Humidity 81    
Maximum Humidity 94    
Minimum Humidity 49    
Precipitation  
Precipitation 0.02 in - - ()
Sea Level Pressure  
Sea Level Pressure 29.97 in    
Wind  
Wind Speed 2 mph (NE)    
Max Wind Speed 9 mph    
Max Gust Speed -    
Visibility 8 miles    
Events Rain , Thunderstorm    
Averages and records for this station are not official NWS values.
T = Trace of Precipitation, MM = Missing Value Source: NWS Daily Summary

Daily Weather History Graph

Daily Weather History Graph

Search for Another Location

Airport or City:

Trip Planner

Search our weather history database for the weather conditions in past years. The results will help you decide how hot, cold, wet, or windy it might be!

Date:

Astronomy

Aug. 24, 2014 Rise Set
Actual Time 6:10 AM CDT 7:19 PM CDT
Civil Twilight 5:44 AM CDT 7:45 PM CDT
Nautical Twilight 5:13 AM CDT 8:16 PM CDT
Astronomical Twilight 4:41 AM CDT 8:48 PM CDT
Moon 5:20 AM CDT (8/24) 6:38 PM CDT (8/24)
Length of Visible Light 14h 01m
Length of Day
13h 09m
Waning Crescent, 1% of the Moon is Illuminated
Aug 24
Waning Crescent
Aug 25
New
Sep 2
First Quarter
Sep 8
Full
Sep 15
Last Quarter

Hourly Weather History & Observations

Time (CDT) Temp. Heat Index Dew Point Humidity Pressure Visibility Wind Dir Wind Speed Gust Speed Precip Events Conditions
12:15 AM 71.6 °F - 69.8 °F 94% 29.98 in 7.0 mi Calm Calm - N/A   Clear
12:35 AM 71.6 °F - 69.8 °F 94% 29.98 in 7.0 mi Calm Calm - N/A   Clear
12:55 AM 71.6 °F - 69.8 °F 94% 29.97 in 7.0 mi Calm Calm - N/A   Clear
1:15 AM 71.6 °F - 68.0 °F 88% 29.97 in 5.0 mi Calm Calm - N/A   Clear
1:35 AM 71.6 °F - 68.0 °F 88% 29.97 in 5.0 mi Calm Calm - N/A   Clear
1:55 AM 71.6 °F - 68.0 °F 88% 29.96 in 4.0 mi Calm Calm - N/A   Clear
2:15 AM 71.6 °F - 68.0 °F 88% 29.96 in 5.0 mi Calm Calm - N/A   Clear
2:35 AM 69.8 °F - 68.0 °F 94% 29.96 in 5.0 mi Calm Calm - N/A   Clear
2:55 AM 69.8 °F - 68.0 °F 94% 29.96 in 4.0 mi Calm Calm - N/A   Clear
3:15 AM 69.8 °F - 68.0 °F 94% 29.95 in 4.0 mi Calm Calm - N/A   Clear
3:35 AM 69.8 °F - 68.0 °F 94% 29.95 in 4.0 mi Calm Calm - N/A   Clear
3:55 AM 69.8 °F - 68.0 °F 94% 29.94 in 2.5 mi Calm Calm - N/A   Scattered Clouds
4:15 AM 69.8 °F - 68.0 °F 94% 29.93 in 2.5 mi Calm Calm - N/A   Scattered Clouds
4:35 AM 69.8 °F - 66.2 °F 88% 29.93 in 3.0 mi Calm Calm - N/A   Clear
4:55 AM 69.8 °F - 68.0 °F 94% 29.93 in 4.0 mi Calm Calm - N/A   Scattered Clouds
5:15 AM 69.8 °F - 68.0 °F 94% 29.94 in 3.0 mi NNW 4.6 mph - N/A   Scattered Clouds
5:35 AM 69.8 °F - 68.0 °F 94% 29.95 in 5.0 mi East 3.5 mph - N/A   Scattered Clouds
5:55 AM 71.6 °F - 68.0 °F 88% 29.94 in 10.0 mi East 3.5 mph - N/A   Scattered Clouds
6:15 AM 69.8 °F - 66.2 °F 88% 29.94 in 7.0 mi Calm Calm - N/A   Clear
6:35 AM 69.8 °F - 66.2 °F 88% 29.96 in 5.0 mi ENE 4.6 mph - N/A   Clear
6:55 AM 69.8 °F - 68.0 °F 94% 29.97 in 7.0 mi NE 4.6 mph - N/A   Clear
7:15 AM 71.6 °F - 68.0 °F 88% 29.96 in 7.0 mi Calm Calm - N/A   Clear
7:35 AM 71.6 °F - 68.0 °F 88% 29.97 in 7.0 mi NNE 3.5 mph - N/A   Mostly Cloudy
7:55 AM 73.4 °F - 68.0 °F 83% 29.98 in 10.0 mi Calm Calm - N/A   Overcast
8:15 AM 73.4 °F - 69.8 °F 88% 29.98 in 7.0 mi Calm Calm - N/A   Scattered Clouds
8:35 AM 75.2 °F - 69.8 °F 83% 29.98 in 10.0 mi NE 3.5 mph - N/A   Scattered Clouds
8:55 AM 77.0 °F - 69.8 °F 78% 29.98 in 10.0 mi Calm Calm - N/A   Clear
9:15 AM 78.8 °F - 69.8 °F 74% 29.99 in 10.0 mi NNE 3.5 mph - N/A   Clear
9:35 AM 78.8 °F - 69.8 °F 74% 29.99 in 10.0 mi NNE 5.8 mph - N/A   Mostly Cloudy
9:55 AM 80.6 °F 83.9 °F 69.8 °F 70% 30.00 in 10.0 mi NE 6.9 mph - N/A   Overcast
10:15 AM 82.4 °F 86.3 °F 69.8 °F 66% 30.01 in 10.0 mi ESE 4.6 mph - N/A   Overcast
10:35 AM 82.4 °F 85.4 °F 68.0 °F 62% 30.00 in 10.0 mi SE 3.5 mph - N/A   Mostly Cloudy
10:55 AM 84.2 °F 87.3 °F 68.0 °F 58% 30.00 in 10.0 mi Calm Calm - N/A   Scattered Clouds
11:15 AM 86.0 °F 89.4 °F 68.0 °F 55% 29.99 in 10.0 mi SSW 6.9 mph - N/A   Clear
11:35 AM 86.0 °F 89.4 °F 68.0 °F 55% 29.99 in 10.0 mi Calm Calm - N/A   Mostly Cloudy
11:55 AM 87.8 °F 92.6 °F 69.8 °F 55% 29.98 in 10.0 mi ENE 6.9 mph - N/A   Overcast
12:15 PM 86.0 °F 89.4 °F 68.0 °F 55% 29.98 in 10.0 mi Calm Calm - N/A   Overcast
12:35 PM 87.8 °F 91.4 °F 68.0 °F 52% 29.97 in 10.0 mi South 4.6 mph - N/A   Overcast
12:55 PM 87.8 °F 90.4 °F 66.2 °F 49% 29.96 in 10.0 mi Calm Calm - N/A   Overcast
1:15 PM 86.0 °F 89.4 °F 68.0 °F 55% 29.96 in 10.0 mi NW 3.5 mph - N/A   Overcast
1:35 PM 82.4 °F 87.2 °F 71.6 °F 70% 29.96 in 10.0 mi NNW 4.6 mph - N/A Rain Light Rain
1:55 PM 78.8 °F - 71.6 °F 78% 29.96 in 1.0 mi ESE 6.9 mph - N/A Rain Light Rain
2:15 PM 73.4 °F - 68.0 °F 83% 29.96 in 1.0 mi South 9.2 mph - 0.01 in Rain , Thunderstorm Heavy Thunderstorms and Rain
2:35 PM 73.4 °F - 68.0 °F 83% 29.97 in 4.0 mi NE 3.5 mph - 0.01 in Rain , Thunderstorm Thunderstorms and Rain
2:55 PM 75.2 °F - 69.8 °F 83% 29.96 in 10.0 mi SW 4.6 mph - 0.01 in Rain , Thunderstorm Light Thunderstorms and Rain
3:15 PM 73.4 °F - 69.8 °F 88% 29.98 in 7.0 mi Calm Calm - N/A Rain , Thunderstorm Thunderstorms and Rain
3:35 PM 73.4 °F - 69.8 °F 88% 29.97 in 7.0 mi East 3.5 mph - 0.01 in Rain , Thunderstorm Light Thunderstorms and Rain
3:55 PM 73.4 °F - 69.8 °F 88% 29.96 in 7.0 mi Calm Calm - 0.01 in Rain Light Rain
4:15 PM 73.4 °F - 69.8 °F 88% 29.96 in 10.0 mi Calm Calm - N/A Rain Light Rain
4:35 PM 73.4 °F - 69.8 °F 88% 29.96 in 7.0 mi Calm Calm - N/A Rain Light Rain
4:55 PM 73.4 °F - 69.8 °F 88% 29.96 in 10.0 mi NNE 4.6 mph - N/A Rain Light Rain
5:15 PM 73.4 °F - 69.8 °F 88% 29.96 in 10.0 mi NE 3.5 mph - N/A   Light Drizzle
5:35 PM 73.4 °F - 69.8 °F 88% 29.95 in 10.0 mi NE 4.6 mph - N/A   Clear
5:55 PM 75.2 °F - 69.8 °F 83% 29.94 in 10.0 mi East 3.5 mph - N/A   Clear
6:15 PM 75.2 °F - 69.8 °F 83% 29.95 in 10.0 mi NE 3.5 mph - N/A   Clear
6:35 PM 73.4 °F - 69.8 °F 88% 29.96 in 10.0 mi NNE 3.5 mph - N/A   Clear
6:55 PM 73.4 °F - 69.8 °F 88% 29.97 in 10.0 mi NE 3.5 mph - N/A   Clear
7:15 PM 73.4 °F - 69.8 °F 88% 29.98 in 10.0 mi NNE 4.6 mph - N/A   Clear
7:35 PM 73.4 °F - 69.8 °F 88% 29.98 in 10.0 mi NE 3.5 mph - N/A   Clear
7:55 PM 73.4 °F - 69.8 °F 88% 29.98 in 10.0 mi Calm Calm - N/A   Clear
8:15 PM 73.4 °F - 69.8 °F 88% 29.99 in 7.0 mi Calm Calm - N/A   Clear
8:35 PM 73.4 °F - 69.8 °F 88% 29.99 in 10.0 mi Calm Calm - N/A   Scattered Clouds
8:55 PM 73.4 °F - 69.8 °F 88% 30.00 in 7.0 mi Calm Calm - N/A   Scattered Clouds
9:15 PM 73.4 °F - 69.8 °F 88% 30.01 in 10.0 mi Calm Calm - N/A   Clear
9:35 PM 75.2 °F - 68.0 °F 78% 30.01 in 10.0 mi ENE 4.6 mph - N/A   Clear
9:55 PM 77.0 °F - 68.0 °F 74% 30.01 in 10.0 mi NE 5.8 mph - N/A   Clear
10:15 PM 77.0 °F - 64.4 °F 65% 30.01 in 10.0 mi NE 3.5 mph - N/A   Clear
10:35 PM 75.2 °F - 66.2 °F 73% 30.02 in 10.0 mi North 4.6 mph - N/A   Clear
10:55 PM 73.4 °F - 66.2 °F 78% 30.02 in 10.0 mi NE 5.8 mph - N/A   Scattered Clouds
11:15 PM 73.4 °F - 64.4 °F 73% 30.03 in 10.0 mi NE 4.6 mph - N/A   Scattered Clouds
11:35 PM 73.4 °F - 64.4 °F 73% 30.04 in 10.0 mi Calm Calm - N/A   Mostly Cloudy
11:55 PM 73.4 °F - 64.4 °F 73% 30.04 in 10.0 mi Calm Calm - N/A   Overcast